AirNav   Air Wisconsin pilot careers
 
 1638 users online  

16G Seneca County Airport
Tiffin, Ohio, USA

GOING TO TIFFIN?


FAA INFORMATION EFFECTIVE 19 JULY 2018

Location

FAA Identifier: 16G
Lat/Long: 41-05-38.6000N / 083-12-45.0000W
41-05.643333N / 083-12.750000W
41.0940556 / -83.2125000
(estimated)
Elevation: 785.9 ft. / 239.5 m (surveyed)
Variation: 05W (1985)
From city: 2 miles SW of TIFFIN, OH
Time zone: UTC -4 (UTC -5 during Standard Time)
Zip code: 44883

Airport Operations

Airport use: Open to the public
Control tower: no
ARTCC: CLEVELAND CENTER
FSS: CLEVELAND FLIGHT SERVICE STATION
NOTAMs facility: CLE (NOTAM-D service available)
Attendance: 0800-DUSK
Wind indicator: lighted
Segmented circle: yes
Lights: ACTVT MIRL RY 06/24; REIL & PAPI RYS O6 & 24 - CTAF.
Beacon: white-green (lighted land airport)
Operates sunset to sunrise.

Airport Communications

CTAF/UNICOM: 123.0
WX AWOS-3: 127.175 (419-443-1043)
TOLEDO APPROACH: 120.8 [0600-2300]
TOLEDO DEPARTURE: 120.8 [0600-2300]
WX AWOS-3 at FZI (10 nm NW): 124.625 (419-436-0053)
WX AWOS-3 at S24 (14 nm NE): 119.575 (419-547-6932)

Nearby radio navigation aids

VOR radial/distance  VOR name  Freq  Var
FBCr073/26.0FLAG CITY VORTAC108.2002W
VWVr140/28.8WATERVILLE VOR/DME113.1002W
BUDr352/(29.4)BUCKEYE VOR109.8005W
MFDr299/31.2MANSFIELD VORTAC108.8003W

 
NDB name  Hdg/Dist  Freq  Var  ID
TIFFINat field26905WTII - .. ..
PORT CLINTON218/29.842307WPCW .--. -.-. .--

Airport Services

Fuel available: 100LL JET-A
FUEL AVBL 24 HRS WITH CREDIT CARD.
Parking: hangars and tiedowns
Airframe service: MAJOR
Powerplant service: MAJOR
Bulk oxygen: HIGH/LOW

Runway Information

Runway 6/24

Dimensions: 4000 x 75 ft. / 1219 x 23 m
Surface: asphalt, in good condition
Runway edge lights: medium intensity
RUNWAY 6  RUNWAY 24
Latitude: 41-05.461090N41-05.824897N
Longitude: 083-13.113030W083-12.387342W
Elevation: 785.9 ft.781.1 ft.
Gradient: 0.1%0.1%
Traffic pattern: leftleft
Runway heading: 061 magnetic, 056 true241 magnetic, 236 true
Markings: nonprecision, in good conditionnonprecision, in good condition
Visual slope indicator: 4-light PAPI on left (3.00 degrees glide path)
RY 06 PAPI UNUSBL BYD 5 DEG LEFT OF CNTRLN.
4-light PAPI on left (3.00 degrees glide path)
UNUSBL BYD 4 DEG LEFT OF CRS & 8 DEG RIGHT OF CRS.
Runway end identifier lights: yesyes
Touchdown point: yes, no lightsyes, no lights
Obstructions: 85 ft. trees, 231 ft. from runway, 245 ft. right of centerline
RWY 06 APCH SLOPE 0:1 DUE TO +85 FT TREE 231 FT FM 245R
62 ft. trees, 666 ft. from runway, 298 ft. left of centerline, 6:1 slope to clear
RWY 24 +5.5 FT POWER BOX 100 FT FROM THLD 195 FT LEFT.

Airport Ownership and Management from official FAA records

Ownership: Publicly-owned
Owner: SENECA COUNTY COMSN
81 JEFFERSON ST
TIFFIN, OH 44883
Phone 419-447-4550
Manager: BRAD NEWMAN
1778 W. ST. RT 224
TIFFIN, OH 44883
Phone 419-447-4263

Airport Operational Statistics

Aircraft based on the field: 34
Single engine airplanes: 26
Multi engine airplanes: 8
    
Aircraft operations: avg 165/day *
68% local general aviation
23% transient general aviation
8% air taxi
<1% military
* for 12-month period ending 23 July 2015

Additional Remarks

AWOS 127.175 PHONE 419-443-1043
CREW CAR AND RENTAL CARS AVBL ON THE FLD.

Instrument Procedures

NOTE: All procedures below are presented as PDF files. If you need a reader for these files, you should download the free Adobe Reader.

NOT FOR NAVIGATION. Please procure official charts for flight.
FAA instrument procedures published for use from 19 July 2018 at 0901Z to 16 August 2018 at 0900Z.

 
IAPs - Instrument Approach Procedures
RNAV (GPS) RWY 06 **CHANGED**   download (169KB)
RNAV (GPS) RWY 24 **CHANGED**   download (188KB)
VOR RWY 06 **CHANGED**   download (174KB)
NDB RWY 24 **CHANGED**   download (150KB)
NOTE: Special Take-Off Minimums/Departure Procedures apply   download (164KB)

Other nearby airports with instrument procedures:

KFZI - Fostoria Metropolitan Airport (10 nm NW)
56D - Wyandot County Airport (13 nm S)
S24 - Sandusky County Regional Airport (14 nm NE)
14G - Fremont Airport (15 nm N)
KFDY - Findlay Airport (21 nm W)
 
Loc | Ops | Rwys | IFR | FBO | Links
Com | Nav | Svcs | Stats | Notes

City of Findlay
 
Area around 16G (Seneca County Airport)
 
Road maps at: MapQuest Bing Google
 
Aerial photo
WARNING: Photo may not be current or correct
Aerial photo of 16G (Seneca County Airport)
Do you have a better or more recent aerial photo of Seneca County Airport that you would like to share? If so, please send us your photo.

 
Sectional chart

 
Airport distance calculator
Flying to Seneca County Airport? Find the distance to fly.

From to 16G

Sunrise and sunset
Times for 23-Jul-2018
 Local
(UTC-4)
 Zulu
(UTC)
Morning civil twilight05:4909:49
Sunrise06:2110:21
Sunset20:5700:57
Evening civil twilight21:2901:29

Current date and time
Zulu (UTC)  23-Jul-2018 16:10:18
Local (UTC-4)  23-Jul-2018 12:10:18
 
METAR
KFDY 
21nm W 
231553Z AUTO 08006KT 10SM OVC024 23/17 A2990 RMK AO2 SLP117 T02280167
KMNN 
29nm S 
231553Z AUTO 07004KT 7SM OVC007 21/18 A2991 RMK AO2 SLP125 T02110183 $
KPCW 
30nm NE 
231555Z AUTO 06005KT 9SM OVC012 22/19 A2989 RMK AO2
KTDZ 
31nm NW 
231553Z AUTO 06005KT 10SM OVC026 23/17 A2991 RMK AO2 SLP125 T02280172 $
KOWX 
35nm W 
231555Z AUTO 06003KT 10SM SCT024 21/15 A2992 RMK AO1
KMFD 
36nm SE 
231552Z 04003KT 4SM BR OVC004 21/19 A2992 RMK AO2 SLP125 T02060194
KTOL 
40nm NW 
231552Z 09005KT 10SM BKN032 24/15 A2990 RMK AO2 SLP121 T02390150
TAF
KFDY 
21nm W 
231121Z 2312/2412 VRB03KT P6SM SCT018 OVC050 TEMPO 2312/2315 BKN018 FM232200 VRB04KT P6SM VCSH BKN040 FM240900 VRB03KT 4SM BR SCT008
NOTAMs
Click for the latest NOTAMs
NOTAMs are issued by the DoD/FAA and will open in a separate window not controlled by AirNav.

 

 
 

FBO, Fuel Providers, and Aircraft Ground Support

  
 Business Name 
 
 Contact 
 
 Services / Description 
 
Fuel Prices
 
Comments
  
Tiffin Aire 419-447-4263
no information available

If you are affiliated with Tiffin Aire and would like to show here your services, contact info, web link, logo, and more, click here
100LL Jet A
FS $4.60 $3.97 
 Updated 11-Jul-2018
 
   17 read write
FS=Full service
Update Fuel Prices
 

Would you like to see your business listed on this page?

 If your business provides an interesting product or service to pilots, flight crews, aircraft, or users of the Seneca County Airport, you should consider listing it here.  To start the listing process, click on the button below
 
Add a business
 

Other Pages about Seneca County Airport

Update a link
 
Copyright © AirNav, LLC. All rights reserved. Privacy Policy  Contact